Regional Weather Roundup
Issued by NWS State College, PA

Home | Current Version | Previous Version | Graphics & Text | Print | Product List | Glossary On
Versions: 1 2 3 4 5 6 7 8 9 10 11 12 13 14 15 16 17 18 19 20 21 22 23 24 25 26 27 28 29 30 31 32 33 34 35 36 37 38 39 40 41 42 43 44 45 46 47 48 49 50
000
ASUS41 KCTP 281103
RWRCTP

REGIONAL WEATHER ROUNDUP
NATIONAL WEATHER SERVICE STATE COLLEGE PA
700 AM EDT SAT MAR 28 2015

Note: "fair" indicates few or no clouds below 12,000 feet with no
significant weather and/or obstructions to visibility.

* = STATION THAT DOES NOT REPORT PRECIPITATION /E.G. RAIN...SNOW...ETC/
    THUNDER OR FOG.

PAZ002>004-007>009-013>016-020>023-029>032-281200-
WESTERN PENNSYLVANIA

CITY           SKY/WX    TMP DP  RH WIND       PRES   REMARKS
ERIE           FLURRIES  17   9  70 NW7       30.08R WCI   8
MEADVILLE      CLOUDY    12   7  80 NW6       30.02R WCI   3
FRANKLIN*      CLOUDY    12   7  79 NW8       30.01R WCI   1
NEW CASTLE     FLURRIES  14  10  84 NW8       30.08R WCI   3
BEAVER COUNTY  CLOUDY    14   7  73 NW7       30.04  WCI   4
BUTLER*        PTCLDY    12   5  73 NW3       30.05R
PITTSBURGH INT PTCLDY    15   4  61 NW13      30.04R WCI   1
PITTSBURGH     PTCLDY    14   2  58 N14G21    30.02R WCI  -1
INDIANA*       CLOUDY    16   9  73 NW9       30.02R WCI   4
LATROBE        LGT SNOW  16   9  73 NW8       30.04R WCI   5
WASHINGTON CO* CLOUDY    16   3  57 NW8G18    30.06R WCI   5
$$

PAZ004>006-010>012-017>019-024>028-033>037-041-042-045-046-049>053-281200-
CENTRAL PENNSYLVANIA

CITY           SKY/WX    TMP DP  RH WIND       PRES   REMARKS
BRADFORD       LGT SNOW  12   7  80 NW10      29.89R WCI  -1
DUBOIS         LGT SNOW  17  11  77 NW10      29.92R WCI   5
CLEARFIELD     FLURRIES  17  10  74 N7        29.94R WCI   8
JOHNSTOWN      CLOUDY    11   1  64 NW16      29.88R WCI  -6
ALTOONA        PTCLDY    16   5  62 NW14G23   29.93R WCI   2
STATE COLLEGE  CLOUDY    21  10  63 NW8       29.92R HAZE    WCI  12
WILLIAMSPORT   CLOUDY    25  13  60 NW7       29.93R
SELINSGROVE    CLOUDY    27  16  63 NW14      29.92R
FT INDIANTOWN  MIX PCPN  28  21  74 NW8       29.87R
CAPITAL CITY   CLOUDY    28  21  75 NW10      29.91R
HARRISBURG     LGT SNOW  28  22  78 NW20      29.90R FOG     WCI  15
YORK           LGT SNOW  27  22  81 NW10      29.90R
$$

PAZ038>040-043-044-047-048-054-055-060>062-067>071-281200-
EASTERN PENNSYLVANIA

CITY           SKY/WX    TMP DP  RH WIND       PRES   REMARKS
SCRANTON       CLOUDY    27  15  61 N10       29.85R
MOUNT POCONO   CLOUDY    23  15  71 NW14G20   29.75R WCI  11
ALLENTOWN      CLOUDY    31  18  58 N15       29.84R
QUAKERTOWN*    CLOUDY    30  18  59 N5        29.83R
READING        CLOUDY    30  18  60 NW6       29.85R
LANCASTER      LGT SNOW  30  25  81 NW14      29.86R
COATESVILLE    CLOUDY    32  23  69 N8        29.83R
POTTSTOWN      CLOUDY    31  18  58 NW13      29.85R
BLUE BELL      CLOUDY    34  21  60 CALM      29.82R
DOYLESTOWN     CLOUDY    30  18  60 NW10G17   29.81R
WILLOW GROVE   NOT AVBL
NORTH PHILA    CLOUDY    35  19  52 N14G22    29.83R
PHILADELPHIA   MOCLDY    35  19  52 N16G28    29.83R
$$


USA.gov is the U.S. government's official web portal to all federal, state and local government web resources and services.